Theta_e
276 276 276 276 277 276 276 276 277 277 276 276 276 275 274 275 273 270 270 272 272 273 275 276 275 276 277 277 278 277 276 280 281 278 277 277 276 280 284 286 286 286 287 288 288 288 288 289 289 290 290 291 291 292 292 292 292 293 293 294 295 296 296 297 297 297 298 298 299 300 301 301 302 302
276 276 275 275 276 276 275 276 276 275 275 275 275 275 275 275 273 273 271 271 273 273 275 275 275 275 276 277 277 277 276 281 280 277 276 276 276 282 283 283 284 285 286 286 286 287 288 288 289 289 289 290 290 291 291 291 291 292 292 293 294 294 295 296 295 296 295 297 298 299 299 300 300 301
276 275 274 274 274 275 274 275 275 275 275 275 275 274 275 275 274 274 273 270 273 274 273 274 275 275 275 276 276 276 276 278 279 276 275 275 279 280 278 280 282 284 284 284 285 287 288 288 288 288 288 288 289 290 290 290 290 290 291 291 293 293 294 293 293 294 294 295 296 297 297 298 299 300
276 274 274 274 274 274 274 274 275 274 275 274 275 274 275 274 274 274 273 272 272 275 274 274 274 274 274 275 275 274 275 277 278 275 275 275 278 275 275 278 280 281 283 284 285 286 287 287 287 287 287 288 288 288 289 289 289 289 290 291 292 291 292 291 292 293 293 293 294 294 295 296 297 298
274 274 273 273 274 274 274 274 274 274 274 273 275 274 274 274 273 273 272 270 271 272 274 274 274 274 274 274 274 273 274 274 275 276 274 275 274 274 274 275 278 280 281 283 284 285 286 287 287 287 286 287 287 287 288 287 287 288 289 289 291 291 290 291 291 292 292 292 293 293 294 295 296 297
275 273 272 273 272 273 273 273 272 273 272 273 272 273 273 272 273 273 272 271 270 270 272 272 273 273 274 272 273 273 273 273 274 273 273 274 274 274 274 274 274 279 281 282 284 285 286 285 286 286 285 286 286 287 287 287 288 289 289 288 288 289 290 290 290 290 290 291 292 293 294 294 295 296
272 272 272 272 272 273 271 272 272 272 272 272 272 271 272 271 272 272 272 271 269 270 271 272 272 272 273 272 272 273 273 274 273 272 273 273 274 274 274 274 274 278 281 283 284 284 284 285 285 285 285 285 286 286 287 286 286 287 287 288 287 287 288 288 289 289 289 291 291 292 292 293 294 294
272 272 272 272 271 271 271 270 271 271 271 271 271 271 271 271 271 271 272 272 271 270 269 271 271 272 272 272 273 273 273 272 272 272 273 273 273 273 274 274 274 276 281 282 282 283 283 284 284 284 284 285 285 285 286 286 286 286 286 287 287 287 286 287 287 288 288 289 291 291 292 292 292 293
272 272 272 271 271 270 270 269 269 270 270 271 271 271 271 271 272 272 272 271 271 270 269 270 272 272 272 272 272 272 271 272 272 272 272 272 272 273 273 274 275 278 280 280 281 281 282 283 283 284 284 285 285 285 285 285 285 285 285 285 285 286 286 286 286 287 288 288 288 289 290 291 291 292
273 272 272 272 271 270 270 270 269 269 269 269 269 269 270 271 271 271 271 271 271 271 270 270 270 271 271 271 271 272 272 271 270 271 272 272 273 273 273 274 275 276 276 275 276 278 279 280 282 283 284 284 285 285 285 285 285 284 284 284 284 284 285 286 286 287 287 287 287 288 289 290 291 291
272 272 272 271 271 270 270 270 270 270 269 269 269 270 269 270 270 270 270 271 271 271 271 270 271 270 271 271 270 272 272 272 271 270 270 271 273 273 273 273 275 276 276 278 280 279 279 281 280 282 283 283 284 284 284 284 284 283 283 283 284 284 285 286 286 286 286 287 287 287 287 288 289 290
272 272 272 271 271 271 271 271 270 270 270 270 269 270 269 270 270 270 269 270 270 270 270 270 271 271 270 270 271 272 272 270 270 271 271 270 271 272 274 274 274 276 276 275 276 278 279 279 280 281 281 282 282 283 282 282 282 281 282 283 284 284 285 285 286 286 286 286 286 286 286 287 287 289
271 271 271 272 271 273 276 277 277 276 275 270 269 269 270 268 270 268 266 267 268 267 269 270 272 271 271 271 270 269 269 269 270 272 273 272 273 273 274 275 276 276 276 276 276 276 277 276 276 276 275 276 279 279 281 281 281 281 282 283 284 284 285 285 285 286 286 285 286 286 286 286 287 287
271 271 271 272 277 277 278 278 279 280 280 280 275 271 270 269 268 264 264 265 266 267 268 269 270 270 270 270 269 269 270 272 273 273 273 271 273 273 273 274 276 277 276 275 274 275 276 275 274 275 275 276 278 277 277 277 279 281 283 284 284 284 284 285 285 285 285 285 285 285 286 286 286 286
271 271 271 270 274 276 277 276 279 279 279 279 279 280 279 277 271 265 265 265 267 266 267 266 267 268 268 269 270 271 271 273 273 273 273 273 273 272 271 270 274 277 275 273 272 271 274 274 273 274 275 277 277 278 276 280 281 282 283 283 283 284 284 284 284 284 285 285 285 285 285 285 285 286
271 271 271 271 272 271 272 271 271 275 277 278 278 278 278 278 278 278 272 267 264 264 265 265 266 268 268 269 271 272 272 273 273 274 274 273 273 272 271 271 270 274 274 271 270 270 274 275 275 274 276 276 275 275 279 281 282 283 283 283 283 283 283 284 284 284 284 284 284 284 284 284 285 285
271 271 271 271 272 272 275 275 272 270 269 275 276 277 277 277 277 277 278 278 273 269 268 267 268 270 271 271 272 274 274 275 273 274 273 273 273 272 270 270 270 271 273 272 270 270 272 273 272 271 272 273 274 275 279 280 281 282 283 283 283 283 283 283 283 284 284 284 283 284 284 284 284 284
271 271 270 270 270 271 271 272 271 269 269 268 269 269 269 269 272 275 276 277 277 276 272 271 270 273 274 273 274 275 276 274 273 273 271 271 270 269 269 270 270 271 272 270 269 267 269 271 270 269 271 274 275 275 277 280 281 282 282 282 282 283 282 282 282 283 283 283 283 283 283 283 284 284
271 271 271 271 270 270 270 270 270 269 269 267 267 266 266 268 268 269 271 272 272 273 273 274 274 274 275 275 275 276 276 275 274 272 270 270 269 269 269 268 269 269 271 270 269 265 268 271 270 271 272 272 272 273 277 279 280 281 281 281 282 282 282 282 282 282 282 283 283 283 283 283 283 283
272 271 271 270 270 270 270 272 276 275 271 268 265 265 266 266 268 270 274 276 277 275 274 274 274 275 275 277 277 277 276 274 272 271 270 268 266 264 263 263 266 266 269 271 268 266 267 271 269 268 270 271 270 272 272 276 278 279 280 280 281 281 280 281 281 281 281 282 282 282 283 283 283 283
271 271 271 271 270 269 269 272 276 277 277 269 268 267 267 268 270 272 274 277 279 280 280 280 281 280 280 279 278 277 276 273 273 268 265 262 263 264 263 264 265 265 268 269 269 268 266 268 268 267 269 269 269 269 270 271 275 278 279 279 279 279 280 280 280 281 281 281 282 282 282 282 282 282
270 271 274 273 270 269 269 274 276 277 276 272 271 270 270 271 271 272 274 275 276 279 279 278 276 275 275 275 273 272 273 273 272 263 260 263 265 264 264 262 263 264 265 267 269 265 265 267 268 266 267 268 268 269 270 271 272 275 276 277 278 279 279 279 280 280 281 281 281 281 282 282 282 279
269 269 272 274 274 272 271 275 276 277 276 272 272 271 272 271 271 272 273 274 274 274 271 271 269 269 269 268 267 267 270 271 270 267 265 266 265 263 263 263 262 261 262 265 269 264 265 266 267 266 264 263 267 269 270 270 271 272 272 273 273 277 278 279 280 280 280 280 281 281 281 281 281 278
267 268 268 271 276 278 278 277 277 278 278 275 274 274 273 272 272 274 274 274 273 270 269 267 267 266 265 265 266 265 266 266 267 268 267 266 264 262 262 262 262 261 262 266 269 266 266 267 265 267 266 263 262 266 269 269 270 271 272 272 272 276 277 277 277 279 279 280 280 280 281 281 280 277
267 267 268 268 272 277 278 279 279 279 279 279 276 275 274 274 275 277 274 271 272 267 266 263 262 261 261 261 262 264 264 265 265 266 267 267 266 264 261 261 261 262 264 266 271 267 265 265 264 266 266 266 266 265 267 268 270 270 271 272 271 273 273 273 274 274 277 278 279 280 280 280 281 279
267 267 267 267 271 275 277 278 279 279 279 279 277 276 279 279 279 277 269 268 265 264 261 260 259 258 257 258 258 261 262 263 264 265 265 266 266 266 266 264 262 261 262 266 271 267 265 264 265 265 265 265 265 266 265 266 268 269 270 271 271 271 271 271 272 272 273 274 274 276 277 281 281 281
267 266 267 268 272 275 276 277 278 278 279 279 277 279 279 279 279 274 267 266 263 261 260 259 258 258 256 257 259 259 261 263 263 265 265 265 265 265 266 266 266 265 266 267 267 267 266 265 267 265 264 265 264 264 264 264 265 268 268 269 270 270 271 271 271 271 272 273 274 278 279 279 280 280
268 267 267 268 273 275 276 277 277 278 278 277 279 279 279 279 275 266 264 261 259 260 259 257 257 257 258 258 259 259 261 262 263 265 265 265 265 265 265 266 266 266 266 266 266 267 266 265 265 267 266 265 264 263 262 265 266 266 266 268 269 270 271 271 271 271 272 273 274 274 274 273 275 275
269 271 273 273 274 275 276 277 277 277 278 279 279 279 278 276 267 264 261 260 257 257 257 257 258 258 259 261 262 263 264 264 264 263 263 263 263 263 264 264 265 265 266 266 266 266 266 266 265 266 266 266 264 264 264 263 265 265 266 266 265 267 269 270 270 271 272 273 273 274 274 274 274 275
276 276 276 276 276 276 276 275 275 274 274 277 277 277 276 267 263 261 260 257 257 257 257 258 258 259 260 261 262 263 263 261 260 261 260 261 261 261 261 262 263 263 263 265 266 266 266 267 266 266 265 265 265 264 265 264 264 265 266 265 266 268 269 270 270 271 272 273 274 274 275 275 275 275
277 276 276 275 276 276 277 277 276 275 275 274 274 269 266 263 262 261 258 258 257 258 257 258 258 259 260 259 259 259 258 259 260 261 261 260 260 261 261 261 261 262 263 261 264 266 266 266 267 266 264 264 265 265 265 265 264 264 265 265 266 264 267 269 271 271 272 273 273 274 274 274 275 276
276 276 277 277 276 274 273 272 268 267 266 267 266 265 262 261 261 263 265 265 259 259 258 258 257 257 257 257 257 258 258 258 259 260 259 259 260 261 261 260 260 261 261 263 263 263 266 266 266 266 266 265 263 264 265 264 263 264 264 266 267 268 268 268 269 270 271 271 270 270 271 272 273 274
273 272 272 271 271 271 270 269 269 268 265 264 263 262 260 258 257 256 256 257 259 258 256 257 256 257 255 257 257 256 257 258 258 260 259 259 259 260 258 259 260 259 260 261 262 263 264 264 265 266 266 266 266 265 264 262 263 264 264 265 266 266 267 268 269 269 270 269 269 270 270 272 273 274
272 271 270 270 270 270 270 269 269 268 267 266 264 261 264 261 257 257 258 257 259 257 257 256 256 255 255 256 256 256 257 258 258 260 263 260 259 258 258 258 259 260 260 260 261 262 263 263 264 264 264 265 265 265 264 263 263 264 265 265 265 265 266 268 268 269 269 269 269 269 269 270 272 274
271 270 269 269 269 269 269 268 268 268 267 266 266 265 262 261 261 263 261 260 258 257 257 256 255 255 255 256 256 256 257 258 259 258 258 257 257 257 259 259 259 260 259 260 260 262 262 262 262 262 262 263 263 261 268 267 264 264 265 265 265 265 266 268 269 269 269 270 270 269 270 271 272 274
269 270 269 269 269 269 268 268 267 267 267 266 265 265 263 262 261 260 261 261 259 257 256 255 256 255 255 255 256 256 257 258 258 257 258 257 257 258 258 259 259 259 259 260 261 261 261 261 261 260 260 260 260 259 260 268 269 266 264 264 265 266 267 268 269 269 269 269 271 271 270 270 271 274
270 269 269 269 269 269 268 268 267 267 267 266 265 264 263 263 262 261 262 263 260 258 258 256 257 256 256 256 256 257 257 257 256 257 257 258 257 258 258 259 259 259 259 260 262 261 260 260 261 260 260 259 258 258 260 264 267 270 266 265 266 267 267 268 268 268 269 270 270 271 270 271 272 273
272 272 270 270 269 269 269 268 267 266 266 265 264 263 263 262 263 262 261 260 260 258 259 259 257 257 256 255 255 255 254 255 255 256 258 258 258 258 258 258 258 258 259 261 261 260 259 259 259 260 260 258 258 258 258 262 263 265 269 268 266 267 268 267 267 267 268 269 270 271 273 272 271 272
273 272 272 271 269 269 268 267 266 266 265 264 263 262 262 262 261 261 260 259 259 259 258 257 257 256 256 255 255 255 255 254 254 255 256 256 257 257 258 258 258 259 260 260 260 260 259 258 259 260 260 260 259 259 260 260 261 264 267 271 269 267 267 268 267 268 268 268 270 272 272 272 274 277
271 271 270 269 269 268 267 267 265 265 264 264 263 263 262 261 261 260 259 259 258 258 258 257 257 258 255 255 255 253 253 253 255 255 256 256 257 258 258 258 258 259 260 259 259 259 259 259 259 260 261 262 262 262 263 263 264 265 266 268 271 269 268 268 267 267 267 270 270 268 267 269 270 272
268 268 268 268 267 266 266 265 265 264 263 263 262 263 262 261 261 260 259 259 258 258 257 257 256 255 255 254 252 252 253 254 254 255 255 256 257 258 259 260 259 259 259 258 259 258 258 260 262 266 264 262 263 263 263 262 261 262 262 264 269 271 272 272 269 268 268 269 267 267 267 267 269 270
264 264 264 265 265 265 265 265 264 263 263 262 262 261 261 260 259 261 261 261 259 257 257 256 255 254 253 252 252 254 253 254 253 254 255 254 255 256 258 258 258 259 258 258 258 259 260 262 262 262 261 261 261 261 260 260 260 261 262 264 265 269 271 271 272 272 270 268 267 266 267 268 269 268
261 262 262 263 263 263 263 263 263 262 262 261 260 260 259 259 258 259 258 258 258 256 256 255 253 252 252 251 251 252 252 253 253 253 254 254 256 256 257 258 258 258 258 259 259 259 260 260 260 260 260 260 262 262 260 261 261 262 262 262 263 264 265 269 270 271 272 272 272 270 269 269 267 266
258 259 260 261 261 262 262 262 261 261 261 260 259 258 258 257 257 257 257 257 256 256 255 254 252 252 252 251 251 250 251 252 252 253 254 256 257 257 257 257 258 258 258 258 258 259 259 259 260 260 259 260 261 261 260 261 260 261 261 262 263 262 262 264 265 268 269 269 271 272 274 274 274 274
257 257 258 258 259 259 260 260 259 259 259 259 258 257 257 256 256 256 256 255 255 255 254 254 253 253 252 251 250 251 251 256 256 254 254 255 255 256 256 257 257 257 257 258 258 258 259 259 260 260 259 260 260 260 261 261 260 261 261 261 260 261 262 262 262 262 263 264 268 272 273 274 274 274
Wind_Speed
3 3 3 3 3 3 3 3 4 4 3 3 3 3 4 3 1 2 4 3 3 3 0 0 2 2 7 7 6 6 5 8 10 5 6 7 7 14 20 21 21 21 22 22 23 23 23 22 22 23 23 23 23 23 24 24 25 25 25 26 27 27 27 27 27 27 27 27 27 26 26 26 26 26
3 3 2 2 3 1 3 4 3 3 3 3 2 2 1 3 5 4 3 6 3 4 3 2 2 3 6 5 6 5 5 9 10 6 7 8 8 18 20 20 20 21 22 22 22 22 22 22 22 22 22 23 23 23 24 23 24 25 25 26 26 27 27 27 27 27 27 27 27 27 26 27 27 27
4 3 3 1 2 1 3 3 3 3 3 2 2 1 2 1 3 4 3 3 5 4 3 1 3 5 4 5 6 5 5 8 11 8 8 7 14 19 14 19 20 21 22 22 22 22 22 22 23 22 22 22 23 23 23 23 23 24 25 25 26 26 26 27 27 27 27 27 27 27 27 27 28 27
3 4 3 2 2 1 3 3 3 3 1 2 2 1 1 1 1 2 3 5 10 1 3 4 4 3 5 6 6 6 6 6 11 8 8 9 14 9 8 14 19 20 21 22 22 22 22 22 23 23 23 23 23 23 23 23 23 24 24 25 26 26 26 26 26 27 26 26 26 26 27 27 27 27
4 3 3 2 1 1 3 3 3 2 1 1 1 1 2 2 1 2 1 3 9 7 2 1 3 3 4 5 4 8 8 9 8 8 6 8 8 8 8 8 14 19 21 22 22 22 23 23 23 23 23 23 23 22 23 23 23 23 25 25 26 26 26 26 26 26 26 26 26 26 26 26 26 26
3 3 3 1 2 1 3 3 2 3 2 1 2 1 3 1 0 1 3 3 3 11 4 3 3 3 3 7 3 7 11 11 9 10 9 7 6 8 8 7 8 17 20 21 21 22 23 24 23 23 22 22 22 23 23 23 23 24 26 26 26 26 27 27 26 26 26 26 26 25 25 26 26 26
3 3 3 2 2 2 2 2 2 3 2 3 3 2 2 2 2 2 2 1 3 6 9 2 4 3 4 4 8 7 7 8 8 11 10 9 8 6 7 7 6 14 19 21 22 23 23 23 23 23 23 22 22 23 24 24 25 25 26 27 27 27 26 26 26 26 26 26 25 25 25 25 26 25
3 4 3 2 3 3 3 2 3 2 3 3 3 3 3 3 3 2 2 2 2 3 8 4 4 6 7 6 4 6 6 7 10 9 10 8 8 8 7 7 7 10 18 22 22 22 23 23 23 23 22 22 23 24 24 25 26 27 27 27 27 27 26 26 26 26 25 25 25 25 25 25 25 25
4 3 4 3 3 3 3 3 3 3 3 3 3 3 3 4 3 2 2 2 2 4 7 10 5 4 6 5 6 4 8 10 8 8 9 8 8 8 6 6 7 12 18 19 20 20 21 22 22 22 22 24 25 25 25 26 27 27 27 27 26 27 27 26 25 25 25 25 25 25 25 25 25 25
4 4 4 3 4 4 4 4 3 3 4 3 4 4 4 4 3 3 3 2 3 4 6 6 9 4 5 7 3 4 6 8 11 12 10 7 5 7 9 7 6 6 8 8 9 12 14 16 21 23 24 25 26 26 27 26 26 26 26 26 26 27 26 25 25 25 25 25 25 25 25 25 25 25
3 3 3 3 3 4 4 4 4 4 4 4 5 5 5 4 4 4 4 3 4 4 5 5 6 8 4 4 8 4 4 7 6 10 13 14 8 6 8 10 7 7 10 12 17 15 15 19 17 20 24 26 27 27 26 25 25 25 26 26 26 26 25 25 25 25 25 24 25 25 25 24 25 25
3 3 3 3 3 4 4 4 4 4 5 4 4 5 4 4 4 4 4 4 5 4 4 5 7 5 7 6 4 5 6 7 6 4 7 13 14 14 11 8 11 11 10 11 10 8 9 11 15 21 23 24 25 25 23 24 24 25 26 26 25 25 25 26 25 25 25 25 24 24 24 24 24 24
3 3 3 3 3 3 5 8 8 8 7 5 5 4 4 4 5 4 3 4 3 4 4 5 6 8 7 5 7 8 6 7 10 11 9 12 13 11 12 11 9 9 11 10 10 10 7 10 12 11 12 11 17 17 21 19 21 23 25 26 26 25 26 25 25 25 25 25 24 23 23 23 24 23
3 4 3 3 6 7 8 9 10 10 10 9 7 6 6 5 5 4 4 4 4 4 4 4 5 7 7 6 6 8 8 9 11 11 10 12 12 11 11 10 4 8 11 12 14 11 8 12 13 10 11 10 11 9 8 8 17 24 28 26 25 25 25 25 25 25 25 25 24 23 22 22 23 23
5 3 3 3 4 5 6 6 10 10 10 10 11 10 8 7 7 5 5 5 5 4 5 3 3 5 8 7 7 9 11 9 8 9 11 12 12 11 10 12 11 1 10 13 15 17 9 10 12 10 10 10 8 7 9 24 27 27 25 25 26 26 26 26 25 24 24 23 23 23 22 23 23 24
5 5 5 4 3 4 4 5 5 7 10 11 10 10 10 10 11 9 6 5 3 3 4 4 5 5 8 9 6 8 8 9 10 11 11 12 12 12 11 11 14 11 12 15 16 14 8 8 11 12 9 9 10 14 21 25 24 26 27 28 28 26 25 25 24 23 22 22 23 25 25 25 25 24
5 5 5 4 4 4 9 8 5 4 4 7 9 10 11 11 11 10 11 10 5 4 5 5 5 6 9 9 7 8 9 11 12 12 12 11 11 10 12 12 13 14 13 14 14 13 10 11 12 13 12 12 12 12 15 23 28 29 28 27 26 24 23 24 24 22 23 25 27 27 27 26 25 25
6 6 6 6 6 5 5 5 6 4 4 4 4 4 4 4 6 10 12 12 13 10 6 6 8 8 8 10 10 10 10 12 11 9 10 10 11 12 13 14 13 13 10 12 13 13 7 9 13 14 12 9 10 10 20 27 25 26 27 26 24 24 25 24 24 26 28 28 28 27 26 26 25 25
7 7 7 6 7 6 6 6 7 6 6 5 5 5 5 5 5 6 6 6 6 7 7 8 9 10 9 10 11 10 7 8 8 8 9 9 10 11 11 10 9 10 8 10 9 11 10 10 13 13 13 13 14 13 16 24 27 27 26 25 26 27 27 27 28 28 27 27 26 26 25 25 25 24
7 7 7 7 7 7 7 9 14 12 7 6 6 7 5 5 5 6 8 12 12 10 9 9 10 9 10 11 9 11 11 9 7 7 6 4 4 7 9 10 9 7 6 7 10 10 10 10 13 14 12 12 13 13 13 19 25 26 26 25 25 27 28 27 26 25 25 25 25 25 25 24 25 24
7 7 7 7 7 7 8 10 14 15 13 5 7 7 6 6 6 7 6 13 17 18 17 16 15 14 14 15 16 16 17 12 8 5 6 5 4 6 9 10 8 9 9 7 7 8 11 10 12 14 12 13 15 14 12 11 18 23 25 27 27 26 26 26 25 25 24 24 24 24 24 24 23 26
7 7 13 10 8 8 9 12 15 16 11 7 6 6 6 8 8 7 5 6 8 14 12 6 6 7 9 11 11 12 13 13 8 2 5 5 5 6 5 9 10 11 9 6 7 8 9 11 11 13 12 12 9 10 11 12 14 22 22 25 26 26 25 25 26 25 24 24 23 23 24 24 23 15
6 7 10 16 13 11 11 16 16 17 12 7 6 6 7 10 10 7 5 6 6 2 3 1 3 4 4 3 3 4 11 10 8 5 5 4 4 5 6 6 9 11 6 0 8 10 10 11 10 11 13 12 7 7 10 14 14 13 12 13 15 23 24 24 24 24 24 23 23 23 23 23 21 12
7 8 8 11 19 21 19 17 18 17 17 10 7 8 9 9 10 4 5 4 2 3 2 1 1 2 2 2 3 3 4 6 5 7 5 4 3 5 6 6 6 8 9 5 11 10 9 8 10 9 10 14 14 11 12 12 13 13 13 14 12 18 21 22 18 23 23 22 23 23 23 23 20 12
9 8 8 7 13 19 20 20 20 19 18 16 10 9 9 8 8 9 6 3 4 2 2 1 0 2 1 2 2 3 5 4 5 5 6 6 5 5 6 7 7 9 10 8 14 8 9 9 11 9 9 8 10 14 12 13 13 13 13 13 14 14 13 14 13 14 17 22 22 24 23 22 22 16
8 9 6 7 11 18 19 19 19 19 18 19 11 11 16 17 17 8 5 4 3 2 0 1 3 2 3 3 3 4 4 4 5 5 5 6 6 6 6 7 9 10 12 9 15 9 9 8 9 10 9 10 12 12 16 14 12 11 12 11 12 12 13 15 15 15 13 13 12 15 18 23 22 23
9 5 6 6 12 16 18 18 19 18 19 16 12 17 18 16 17 3 4 4 1 1 2 2 4 5 3 3 4 4 4 4 4 5 5 6 6 7 7 8 9 11 12 10 8 9 8 9 9 10 11 10 13 13 13 14 14 12 12 10 10 10 11 10 13 12 13 12 12 22 21 20 22 22
6 6 6 6 13 16 17 19 18 17 16 12 16 17 18 16 5 4 3 1 1 1 1 4 5 6 4 3 4 4 4 4 4 6 7 7 7 7 8 9 9 9 11 10 9 8 8 9 9 9 10 11 11 12 14 13 14 14 15 12 10 10 9 10 11 12 11 10 10 10 9 9 9 10
6 8 11 13 15 16 18 19 18 15 16 18 19 19 15 8 5 3 2 1 1 3 5 5 5 5 5 5 5 5 5 5 5 5 6 6 6 7 8 9 9 9 8 7 7 7 7 8 9 9 8 8 10 11 12 15 15 15 14 14 10 9 10 10 10 10 11 11 11 10 9 9 10 9
16 16 16 18 18 17 15 11 8 7 8 16 17 15 10 4 4 3 3 2 3 6 6 5 6 6 4 4 5 4 4 3 5 4 6 7 7 6 6 8 8 5 6 7 7 8 8 8 8 9 10 9 9 11 11 10 13 11 11 10 13 11 8 9 9 10 11 12 12 12 10 9 10 10
10 13 14 11 14 13 17 16 15 14 12 10 10 3 2 3 4 5 4 5 5 5 5 6 5 4 4 3 3 3 3 5 4 4 6 6 7 6 6 7 10 9 7 4 5 6 6 7 8 9 10 10 10 10 10 9 11 12 11 9 8 11 10 10 10 13 13 13 13 10 11 10 10 10
7 6 8 12 8 7 7 7 2 1 1 4 5 5 4 4 4 4 4 4 3 4 4 4 3 3 3 4 4 4 4 5 5 4 5 4 7 5 6 7 9 8 9 8 6 5 5 6 7 8 9 10 11 11 10 10 11 11 12 10 9 9 9 11 11 11 11 12 9 9 9 10 10 10
3 3 5 6 6 6 7 6 6 4 4 4 4 4 4 2 2 2 2 5 6 5 4 5 5 6 3 5 3 4 5 6 5 4 5 5 6 6 3 6 8 8 10 11 9 9 7 6 5 9 10 10 11 12 11 12 10 9 10 11 9 10 9 10 10 11 11 10 10 10 10 9 9 10
8 8 7 8 9 9 8 9 9 8 7 6 6 5 5 5 4 4 5 5 6 5 5 5 4 5 4 5 5 5 5 6 5 5 5 5 4 5 5 7 8 8 7 8 9 9 9 9 9 9 9 9 9 11 11 10 12 9 8 9 10 11 10 9 10 12 11 10 12 13 12 12 11 9
10 9 9 9 8 9 9 10 10 8 8 8 7 7 6 5 5 5 6 6 6 6 5 5 5 4 4 5 5 5 5 6 6 5 3 4 5 5 6 7 9 8 8 9 9 8 6 9 10 11 10 9 9 5 11 11 6 9 9 9 8 10 11 11 11 11 11 11 10 10 12 13 14 11
10 9 10 9 9 8 9 10 7 7 7 8 8 7 6 7 6 6 7 6 6 6 6 6 6 5 5 5 5 5 5 6 5 5 6 5 5 5 5 6 7 8 8 8 9 6 5 8 8 10 11 10 10 13 6 3 8 9 10 10 9 10 11 12 12 11 10 10 10 11 11 12 15 14
10 8 8 9 8 7 8 8 7 8 9 9 8 8 8 8 6 8 7 4 5 6 6 5 5 5 5 4 6 6 6 6 5 5 5 6 5 5 6 7 8 7 8 8 6 5 5 7 7 8 10 10 11 12 15 9 11 12 7 9 10 10 10 9 12 13 10 9 12 12 12 12 13 14
9 8 8 10 10 9 9 8 8 8 8 7 7 7 7 6 5 5 5 5 6 6 6 6 5 4 5 5 5 5 5 6 5 5 6 5 6 6 6 7 8 8 9 9 6 6 4 5 6 7 8 10 11 12 15 16 13 7 6 11 11 11 9 10 10 10 12 9 8 11 10 10 10 12
8 8 9 8 7 7 8 8 8 8 7 7 7 8 7 7 5 5 6 6 6 6 5 5 5 5 5 5 5 5 5 5 5 5 5 5 5 6 7 7 8 8 8 9 8 7 5 5 6 6 8 9 10 11 12 13 15 16 15 19 12 10 10 10 10 10 10 11 11 7 8 8 13 21
7 7 6 5 4 4 5 5 5 6 6 6 7 7 6 6 6 6 6 6 6 6 6 6 5 5 5 5 6 4 5 5 6 5 5 6 6 6 6 6 7 8 8 9 9 8 7 7 6 7 8 9 11 12 12 13 13 12 11 13 19 15 12 9 10 11 12 9 10 11 12 10 8 9
7 7 7 5 5 4 4 4 5 5 6 6 6 6 6 5 6 6 6 6 5 5 5 5 5 5 6 5 5 5 5 6 5 5 5 5 7 7 9 9 8 7 7 9 9 8 8 7 10 19 16 11 11 12 10 8 10 10 12 11 13 19 21 18 12 11 11 11 10 10 12 12 11 9
7 8 8 8 8 7 6 5 4 5 5 5 5 5 5 5 5 7 5 6 6 5 5 5 5 5 5 5 4 4 5 6 6 5 6 5 6 6 8 7 7 7 7 9 8 9 9 9 10 10 9 9 8 8 10 10 11 12 12 12 10 13 18 21 22 19 13 11 10 11 11 10 8 8
7 8 8 8 7 7 6 6 5 4 4 3 4 4 4 5 4 5 5 5 5 5 5 5 4 4 5 4 4 4 5 6 5 6 5 5 5 6 7 6 6 7 7 8 8 8 9 9 8 9 8 7 7 7 10 11 11 10 12 11 12 11 11 16 19 21 21 21 17 12 9 9 8 8
6 7 7 7 7 7 7 6 5 4 4 4 4 3 4 4 5 5 5 5 5 5 5 5 5 5 5 5 5 4 6 6 5 5 6 5 5 6 6 7 7 7 7 8 9 8 8 8 8 7 8 8 8 8 9 10 9 10 9 10 11 12 14 11 9 14 16 14 15 16 19 19 17 17
6 6 7 7 7 7 6 5 5 4 4 4 4 4 5 4 5 4 4 4 4 5 4 4 4 4 5 4 4 5 6 6 6 5 4 4 5 6 6 7 8 8 7 6 8 9 8 8 8 6 6 7 7 7 9 9 11 11 11 11 13 12 11 11 12 12 12 12 15 21 21 22 21 20
Wind_Direction
103 86 97 118 113 106 105 85 90 103 96 107 139 162 157 163 152 295 310 266 204 295 249 243 294 55 22 1 352 346 342 333 340 344 339 330 324 320 326 328 326 325 324 324 324 322 321 321 322 321 321 322 322 321 321 322 321 320 319 319 319 320 320 320 320 319 317 315 311 309 309 309 308 306
120 121 87 116 110 126 97 114 116 100 110 105 120 143 170 153 166 204 249 283 217 243 293 199 276 347 1 352 337 338 330 331 341 339 331 328 319 323 329 327 325 324 325 323 321 320 321 321 320 320 320 321 321 320 321 320 319 319 320 320 320 319 319 318 316 315 313 313 312 311 311 310 308 307
124 134 117 110 107 129 120 118 110 111 114 126 137 153 132 161 156 180 198 283 284 152 228 302 356 332 335 340 323 322 327 333 338 333 324 321 320 325 322 322 323 325 325 323 322 322 321 320 320 320 319 319 319 319 319 318 318 319 319 318 317 318 317 316 314 313 311 311 310 310 309 307 305 305
139 135 132 144 117 114 101 102 100 101 98 132 128 147 140 126 159 141 186 232 268 264 313 297 297 323 326 328 328 327 327 328 331 323 322 318 321 319 314 317 321 323 322 322 322 322 321 321 321 320 319 318 317 317 316 316 318 317 316 316 316 316 315 314 313 311 310 310 309 307 306 305 303 301
136 136 129 142 139 139 112 129 127 111 118 104 88 120 107 106 143 139 202 245 284 293 170 289 309 326 332 320 350 329 329 326 325 321 315 315 316 315 312 314 317 320 320 320 320 320 321 321 320 319 319 318 316 315 314 315 315 314 316 316 314 313 313 313 312 311 311 309 307 306 304 304 302 300
139 134 126 146 123 163 131 147 151 158 140 135 103 134 130 154 222 250 146 256 250 292 299 300 296 309 352 315 7 344 327 324 322 320 321 316 312 312 311 312 312 316 318 319 318 319 319 319 318 317 317 316 315 314 313 313 313 315 315 314 313 312 312 311 311 310 309 308 306 305 306 306 304 302
140 131 142 178 152 149 129 166 170 164 162 166 157 189 184 177 217 220 190 169 274 282 298 336 319 331 331 329 323 328 313 305 310 311 314 317 314 305 304 306 302 309 313 317 319 318 316 315 314 313 313 313 313 313 312 311 312 312 312 311 311 311 310 310 308 308 308 306 306 306 306 306 304 303
157 167 164 200 175 165 153 176 173 195 171 175 182 188 209 181 198 200 189 227 224 288 298 309 1 320 329 318 311 305 302 307 312 307 300 300 299 299 298 296 295 297 306 315 312 312 312 312 311 311 310 311 313 312 311 310 310 309 309 309 310 310 309 308 307 306 305 305 306 307 306 305 303 303
169 174 179 199 181 171 172 203 193 195 196 202 185 197 203 189 191 188 181 212 230 267 280 294 305 309 300 294 300 306 319 315 303 299 300 303 301 299 290 286 287 292 301 301 301 301 302 307 308 307 309 311 311 309 309 308 307 307 309 310 310 309 307 306 305 304 303 304 305 305 305 304 303 302
176 177 195 200 188 187 185 214 217 200 209 203 200 204 209 196 186 196 215 204 225 245 272 285 302 314 311 312 286 298 303 307 313 312 304 293 285 302 309 300 295 296 294 298 288 288 293 293 302 308 309 309 309 307 307 306 306 307 309 308 307 306 305 304 304 303 303 304 305 305 304 303 302 301
181 184 192 200 192 196 203 203 209 215 219 201 220 212 208 206 191 216 216 212 222 241 271 276 266 293 291 283 308 300 273 282 285 301 314 316 316 300 305 311 310 300 293 284 285 288 295 304 306 306 307 307 306 305 303 305 306 307 306 306 305 304 302 303 304 305 304 304 304 304 303 303 303 301
179 185 192 194 202 198 211 204 220 206 217 212 221 228 199 206 204 217 222 221 234 245 264 279 297 288 297 295 257 283 303 304 290 232 294 304 313 315 311 307 313 307 292 296 298 293 298 293 300 305 304 302 301 301 302 304 305 304 305 304 302 301 303 305 304 303 304 305 305 304 303 302 301 301
178 191 195 204 208 214 223 230 227 217 213 200 221 238 197 212 210 220 219 222 231 246 248 276 287 293 298 298 309 311 310 306 302 304 296 286 288 291 296 302 301 294 301 299 300 310 325 314 303 302 297 294 298 296 297 301 299 299 301 301 302 304 305 303 303 304 305 305 304 302 303 303 303 302
197 200 205 217 228 241 250 252 250 249 246 237 202 201 196 206 202 207 214 226 228 233 245 258 281 290 286 299 298 292 288 289 289 286 289 293 300 300 298 288 301 312 308 317 312 307 324 304 296 292 291 288 291 287 289 292 302 302 302 303 304 305 304 304 304 304 304 303 304 304 304 304 304 304
202 211 213 218 238 248 259 259 254 249 249 252 256 251 231 203 182 191 220 223 209 219 237 237 262 277 284 283 281 280 287 282 281 292 299 300 302 302 305 313 321 11 344 320 310 306 320 296 295 295 288 290 289 307 306 306 304 304 304 305 306 307 306 305 304 303 304 306 308 309 309 308 307 305
194 204 213 225 214 230 235 238 253 258 257 254 252 254 256 259 259 243 198 197 217 228 248 255 244 262 271 277 271 277 282 289 297 298 298 301 305 311 314 318 312 325 334 310 304 302 316 304 301 307 319 326 320 305 304 307 308 306 304 305 305 305 304 305 305 305 307 311 314 313 311 308 306 305
198 201 209 221 225 223 238 243 236 219 242 257 257 260 265 268 262 257 259 261 239 194 227 244 251 239 273 276 265 263 282 294 297 301 303 312 319 321 312 309 309 312 320 304 300 307 328 326 323 313 309 302 295 293 304 312 308 305 305 306 306 305 307 308 307 309 313 314 312 311 308 307 306 304
202 206 204 208 231 228 225 232 230 225 224 229 246 259 262 259 261 260 260 259 264 266 250 240 251 251 244 266 277 278 289 295 296 313 318 325 317 314 306 308 304 304 312 304 308 305 323 322 306 300 301 303 308 316 313 309 307 306 306 306 309 311 312 312 316 315 312 310 309 308 307 305 304 303
208 212 210 206 220 225 226 221 218 221 231 227 232 237 244 239 240 240 240 246 249 246 251 251 254 256 259 268 279 286 286 305 325 327 317 323 316 307 307 299 291 292 293 294 303 297 313 307 303 304 319 326 315 311 313 315 310 306 307 310 311 312 314 315 312 310 309 308 308 308 308 307 307 307
212 212 211 213 220 224 229 229 233 232 216 214 224 235 237 242 243 238 231 242 247 245 232 232 239 240 242 259 285 313 324 329 323 322 324 323 317 315 305 301 309 295 301 312 312 299 305 321 315 312 314 312 313 315 309 308 309 308 308 310 313 314 312 310 309 308 307 307 308 309 310 310 309 309
210 214 213 214 215 221 232 232 237 242 242 219 220 226 233 234 237 242 234 255 263 267 269 269 271 285 307 316 314 315 319 315 317 340 329 312 312 307 308 305 312 307 320 316 307 324 314 321 316 309 313 318 313 309 305 302 301 306 310 311 309 307 307 307 306 305 305 307 308 308 308 308 308 309
219 219 221 214 214 222 231 234 240 242 238 235 229 227 242 251 249 251 239 243 244 252 266 301 350 353 335 336 334 322 311 313 320 342 298 290 304 295 297 301 311 308 310 308 1 326 304 314 317 311 308 300 292 298 301 302 305 307 302 301 303 304 304 303 303 305 306 307 306 306 307 308 310 310
216 231 228 226 223 225 233 237 239 237 232 226 223 227 242 250 249 243 237 236 234 207 80 17 18 338 342 335 318 299 305 308 313 297 275 286 290 294 295 297 308 308 295 293 350 313 310 316 314 318 314 308 291 283 305 307 303 304 301 298 298 300 304 306 306 306 306 305 305 306 308 309 310 306
232 226 229 232 234 236 236 233 234 234 231 224 221 226 236 243 250 239 231 223 156 138 137 165 212 275 285 274 280 276 273 278 276 286 287 279 275 271 280 282 280 272 285 311 322 311 302 305 303 315 307 311 315 316 307 305 308 304 304 304 302 310 312 311 307 306 306 306 307 308 309 309 309 303
226 228 224 220 230 235 238 239 236 235 235 234 231 227 228 235 253 255 227 170 146 135 164 192 280 280 276 261 250 261 261 259 258 260 281 277 272 276 275 285 279 272 276 287 311 311 305 309 299 305 297 283 285 304 309 305 306 306 307 309 311 312 315 314 313 311 308 307 306 308 308 305 303 302
230 229 218 221 224 231 238 239 240 240 241 242 239 240 245 252 256 258 118 149 134 158 111 20 317 294 282 268 262 255 255 255 258 256 257 267 267 263 261 264 279 285 288 295 308 304 298 295 300 303 297 300 300 304 307 306 302 303 308 305 304 310 313 311 309 307 307 308 307 304 302 305 306 305
232 220 224 225 225 231 235 239 241 244 243 244 243 246 249 251 253 219 133 147 153 66 354 331 290 278 260 260 264 265 264 265 265 269 271 270 269 269 263 260 258 267 280 292 292 290 286 284 292 296 301 301 301 306 302 305 308 311 303 302 303 303 303 299 299 301 302 298 295 301 303 299 297 297
221 222 220 212 225 233 237 240 243 244 242 237 244 246 249 245 227 109 169 92 70 51 314 273 268 269 257 236 260 255 254 264 274 282 284 281 278 276 278 273 267 264 275 278 280 276 277 280 286 286 291 301 301 303 305 300 298 304 307 305 298 295 294 296 296 293 288 288 288 292 293 294 290 293
218 220 223 223 231 237 239 241 243 246 246 245 245 248 239 229 108 162 135 170 120 261 251 247 252 258 256 238 247 258 273 280 287 291 287 282 274 270 268 269 269 271 270 271 273 272 273 277 283 286 285 286 291 290 296 299 303 301 304 307 303 304 303 296 287 287 295 294 291 290 288 293 296 294
220 221 224 229 235 237 238 238 234 231 234 245 248 238 226 119 160 132 150 148 201 234 242 238 243 251 258 257 254 262 273 281 281 285 289 300 297 292 294 299 293 274 253 257 260 264 269 276 283 291 291 286 285 289 290 295 294 290 296 296 293 292 281 292 297 294 295 297 297 303 302 293 290 292
226 221 220 221 228 230 233 234 232 230 229 232 234 202 112 154 163 177 171 197 210 227 227 243 243 250 254 273 289 282 277 276 268 261 274 282 283 294 296 299 297 308 294 265 259 255 265 273 284 294 293 292 287 281 285 282 284 292 293 289 295 300 308 306 302 310 316 317 318 313 308 304 297 289
246 236 231 231 235 234 246 250 312 326 136 191 198 207 188 180 180 179 199 205 199 221 216 231 255 274 273 277 268 274 272 267 270 264 265 267 283 285 302 305 300 304 306 306 294 267 257 270 284 290 287 289 290 289 287 281 281 286 288 291 292 290 299 307 310 309 309 308 299 293 292 291 287 289
265 243 231 229 232 227 229 229 228 210 193 227 217 229 230 215 182 190 172 219 229 227 215 239 243 256 268 278 277 281 285 276 274 264 262 266 268 289 281 282 291 301 308 311 315 313 308 293 286 294 288 281 276 278 285 292 284 280 286 298 305 301 302 301 301 300 304 303 300 299 293 281 278 283
237 234 233 234 230 230 229 230 231 223 211 213 215 221 222 211 194 199 217 219 231 220 219 227 234 248 247 266 276 277 272 282 274 269 285 286 289 293 296 296 295 295 294 296 303 306 309 314 316 307 293 276 256 259 262 265 279 285 293 300 301 299 299 297 297 300 303 303 304 306 304 300 296 288
233 231 231 235 230 230 227 230 231 225 222 226 227 226 208 215 214 217 209 222 214 217 220 225 220 229 227 246 260 266 272 279 290 294 276 265 278 274 284 291 295 300 303 303 303 303 307 319 323 316 312 312 309 247 240 248 269 296 299 296 296 299 301 303 303 303 304 303 303 293 296 298 300 305
231 229 233 236 232 225 228 233 227 218 218 222 221 223 218 223 209 210 223 214 196 209 215 222 231 227 231 236 248 255 265 274 282 289 299 293 285 283 276 276 285 291 294 292 294 300 320 321 324 319 319 322 324 320 304 242 298 301 306 303 301 301 302 304 303 302 304 302 302 304 302 303 303 308
232 227 232 242 242 229 231 231 220 220 217 218 218 211 214 220 209 203 213 203 195 203 209 208 227 232 236 238 244 254 263 270 274 283 286 286 280 279 290 292 290 293 294 290 286 301 323 317 317 316 316 317 320 315 303 307 303 301 281 297 304 301 300 304 308 305 302 307 305 305 301 303 307 309
245 238 231 232 232 230 227 224 219 220 218 213 217 217 219 221 213 202 160 181 204 202 215 219 229 230 234 232 241 256 258 255 254 268 275 282 289 288 283 289 293 296 292 292 301 308 311 301 307 310 312 313 312 312 312 315 317 299 303 311 301 304 308 304 298 303 308 300 289 292 294 304 305 302
253 252 249 245 235 228 225 222 212 219 214 208 208 213 213 212 206 187 187 200 197 206 208 214 225 228 233 239 233 237 248 266 273 267 271 269 271 278 286 287 292 291 292 297 304 306 310 300 302 304 307 307 304 303 300 300 298 302 308 311 313 309 304 305 304 307 303 303 299 297 295 289 290 295
285 284 281 277 266 228 228 219 216 217 215 212 211 213 208 207 202 202 200 200 200 205 203 211 218 224 229 231 236 240 252 248 253 260 263 271 272 273 274 279 280 291 296 297 304 305 306 302 303 307 306 301 292 283 282 278 277 280 289 305 315 315 310 312 314 311 304 305 319 317 312 313 304 311
326 314 314 309 290 269 245 232 221 214 219 213 208 210 209 209 204 209 201 196 181 196 204 218 217 221 229 226 230 225 248 260 252 254 260 268 276 280 286 293 288 288 293 294 297 298 299 298 301 309 306 290 284 281 279 284 298 303 305 305 313 319 320 322 313 308 310 316 313 306 304 309 308 309
326 320 318 326 328 319 309 288 265 238 228 213 204 206 206 204 214 215 208 214 194 197 208 218 214 210 224 225 233 235 240 253 261 262 261 267 277 284 284 281 281 289 290 289 294 294 294 298 304 304 293 293 294 305 310 308 304 306 306 308 306 316 322 321 317 314 310 308 309 306 307 304 306 305
319 318 316 315 319 311 304 300 294 283 268 248 231 217 202 206 204 214 193 194 198 195 210 222 214 212 229 230 230 229 238 254 254 260 265 265 262 276 282 281 280 283 283 284 288 287 294 302 305 304 299 295 297 305 302 305 303 302 307 310 312 318 317 318 317 316 314 311 306 298 295 301 307 305
313 311 309 312 306 306 299 289 281 273 261 250 239 223 216 206 213 215 209 207 196 211 206 216 223 220 226 226 227 235 237 245 256 257 259 257 278 286 287 288 287 285 286 289 291 293 299 299 298 298 304 307 311 309 303 307 303 306 304 307 311 317 317 321 318 317 315 313 315 315 316 315 312 307
317 315 313 312 303 292 287 277 271 261 249 238 229 219 226 220 226 218 215 207 210 211 206 212 219 226 226 227 222 240 246 248 253 249 265 284 279 275 276 281 286 286 283 284 296 299 301 299 299 294 290 295 299 299 301 305 307 308 308 313 313 313 314 323 329 327 325 321 321 326 330 332 331 328